Regional Weather Roundup
Issued by NWS Grand Forks, ND

Home | Current Version | Previous Version | Graphics & Text | Print | Product List | Glossary On
Versions: 1 2 3 4 5 6 7 8 9 10 11 12 13 14 15 16 17 18 19 20 21 22 23 24 25 26 27 28 29 30 31 32 33 34 35 36 37 38 39 40 41 42 43 44 45 46 47 48 49 50
000
ASUS43 KFGF 290331
RWRFGF
PRAIRIE TO PINES  WEATHER ROUNDUP
NATIONAL WEATHER SERVICE EASTERN NORTH DAKOTA/GRAND FORKS ND
1000 PM CDT FRI AUG 28 2015

 **SATELLITE DATA USED TO AUGMENT SKY COVER AT AUTOMATED STATIONS**
 *****  WEATHER ACROSS EASTERN NORTH DAKOTA  *****

CITY           SKY/WX    TMP DP  RH WIND       PRES   REMARKS
GRAND FORKS    PTCLDY    70  67  90 S9        29.86R
GRAND FRKS AFB CLEAR     71  68  90 S8        29.87R
GRAND FRKS NWS   N/A     72 N/A N/A S6          N/A
DEVILS LAKE    CLEAR     68  61  77 CALM      29.89R
FARGO          CLEAR     74  64  71 S15       29.92R
WAHPETON ARPT  CLEAR     64  61  88 S9        29.97S
$$

 ***** WEATHER ACROSS CENTRAL AND WESTERN NORTH DAKOTA  *****

CITY           SKY/WX    TMP DP  RH WIND       PRES   REMARKS
BISMARCK       PTCLDY    71  65  81 SE3       29.91R
MINOT          MOCLDY    71  61  70 E3        29.88R
JAMESTOWN      CLEAR     71  66  84 S9        29.91R
MINOT AFB      MOCLDY    69  64  83 E6        29.87R
GARRISON         N/A     71  30  21 CALM      29.90R
WILLISTON      CLOUDY    69  48  47 CALM      29.91R HAZE
DICKINSON      PTCLDY    66  51  58 W10       29.96R
HETTINGER      CLOUDY    63  54  72 CALM      30.00R HAZE
$$

 *****  OTHER AIRPORT OBSERVATIONS IN OUR AREA  *****

CITY           SKY/WX    TMP DP  RH WIND       PRES   REMARKS
WALHALLA       FAIR      68  68 100 MISG      29.87S
GRAFTON AIRPOR FAIR      68  68 100 VRB5      29.86R
VALLEY CITY AR CLOUDY    70  70 100 SW14G20   29.92S
CANDO          FAIR      68  63  83 CALM      29.90R
CAVALIER APRT  FAIR      66  64  94 W3        29.86S
GWINNER          N/A     70  70 100 S8        29.96R
SHEYENNE NWR     N/A     68  66  94 S5        29.95S
ROLLA          CLOUDY    59  59 100 CALM      29.93R
 ***** THE ABOVE OBSERVATIONS ARE NON NWS ARE NOT QUALITY
       CONTROLLED AND MAY MIS-REPORT RAIN FOR SNOW...
$$

  *****  WEATHER ACROSS NORTHERN MINNESOTA  *****

CITY           SKY/WX    TMP DP  RH WIND       PRES   REMARKS
FLAG ISLAND    MOCLDY    70  66  88 CALM      29.86R FOG
WARROAD        CLEAR     72  66  83 SW6       29.87R
ROSEAU         CLEAR     70  64  83 SW3       29.87R
HALLOCK        CLEAR     70  68  94 CALM      29.85R
THF RVR FALLS  CLEAR    N/A N/A N/A SW10      29.88S
BAUDETTE       CLEAR     70  65  84 S5        29.87R
WASKISH        MOCLDY    72  66  83 S7        29.90R
CROOKSTON      CLEAR     73  66  78 SW10      29.89S
STEPHEN NDAWN    N/A     72  70  94 SW6         N/A
GREENBUSH NDAW   N/A     68  66  94 CALM        N/A
$$
  *****  WEATHER ACROSS CENTRAL AND WEST MINNESOTA  *****

CITY           SKY/WX    TMP DP  RH WIND       PRES   REMARKS
FOSSTON        CLEAR     66  63  88 S12       29.93S
BEMIDJI        CLEAR     69  64  83 SW7       29.93S
PARK RAPIDS    MOCLDY    69  62  78 S8        29.97R
ELBOW LAKE     FAIR      63  62  96 S6        30.00R
WADENA         CLEAR     64  61  88 S7        29.99S
DETROIT LAKES  CLEAR     70  63  78 S12G17    29.97F
MOORHEAD       CLEAR     72  64  78 S14G21    29.94S
FERGUS FALLS   CLEAR     66  64  94 S9        29.98S
MORRIS MN      CLEAR     63  63 100 S9        30.00R
STAPLES        CLEAR     64  61  88 S7        30.00S
$$
  *****  WEATHER ELSEWHERE ACROSS MINNESOTA  *****

CITY           SKY/WX    TMP DP  RH WIND       PRES   REMARKS
DULUTH         PTCLDY    67  60  78 SW13      30.00R
INTRNTL FALLS  MOCLDY    72  65  78 SW8G16    29.88R
ELY            MOCLDY    70  61  73 SW7       29.94R
CLOQUET        PTCLDY    66  59  77 S10       30.00S
WHEATON        CLEAR     64  61  88 S10       30.00R
BRAINERD       CLEAR     66  61  84 S9        30.01R
HIBBING        CLEAR     69  62  78 S6        29.95S
ALEXANDRIA     CLEAR     65  62  90 S7        30.03R
SAINT CLOUD    CLEAR     62  59  90 S7        30.03R
MINNEAPOLIS    PTCLDY    61  55  81 SE3       30.05R
$$

  *****  WEATHER ACROSS SOUTH DAKOTA  *****

CITY           SKY/WX    TMP DP  RH WIND       PRES   REMARKS
SIOUX FALLS    PTCLDY    61  57  87 E7        30.02R
BROOKINGS      CLEAR     61  57  88 CALM      30.05R
WATERTOWN      CLEAR     64  60  87 S7        30.01R
HURON          CLEAR     68  64  87 SE6       30.00R
SISSETON         N/A     66  63  90 S9        29.97R
ABERDEEN       CLEAR     68  65  90 S6        29.97R
MITCHELL       PTCLDY    66  64  93 SE6       30.02R
PIERRE         CLEAR     71  66  84 S8        29.98R
MOBRIDGE       PTCLDY    71  68  90 SE8       29.94R
RAPID CITY     CLEAR     66  59  78 CALM      30.07R
$$

  *****  SOME WEATHER IN NEARBY STATES *****

CITY           SKY/WX    TMP DP  RH WIND       PRES   REMARKS
GLASGOW MT     CLOUDY    72  40  31 E3        29.91R HAZE
GREAT FALLS MT CLOUDY    78  39  24 W20G26    29.97R HAZE
CHEYENNE WY    CLEAR     68  41  37 SE3       30.30R
SCOTTSBLUFF NE CLEAR     66  56  70 E3        30.15R
OMAHA NE       CLOUDY    64  63  96 N10       29.94R
DES MOINES IA  CLOUDY    72  67  84 SE6       29.89S
DAVENPORT IA   CLOUDY    67  64  90 NE6       30.03R
CHICAGO IL     CLOUDY    70  63  78 E9        30.07F
EAU CLAIRE WI  CLEAR     56  54  93 NE7       30.07R
LA CROSSE WI   CLOUDY    60  57  89 SE8       30.04F
$$

  *****  SOME NATIONAL WEATHER *****

CITY           SKY/WX    TMP DP  RH WIND       PRES   REMARKS
LA GUARDIA NY  PTCLDY    75  54  47 N3        30.19R
RALEIGH NC     MOCLDY    74  60  61 SE6       30.20R
ATLANTA GA     CLOUDY    75  67  76 CALM      30.17R
NEW ORLEANS LA PTCLDY    80  64  58 E6        30.01R
OKLAHOMA CITY  PTCLDY    73  68  84 S6        29.95R
ALBUQUERQUE NM MOCLDY    76  48  37 E20       30.17R
SALT LAKE CITY PTCLDY    82  39  21 SE7       30.04R
LOS ANGELES CA PTCLDY    75  67  76 W7        29.82R
BOISE ID       CLOUDY    83  42  23 W8        29.88R
SEATTLE WA     CLOUDY    71  55  56 N6        29.82F
$$

*** WEATHER ACROSS MANITOBA...SASKATCHEWAN AND ONTARIO ***
                ***ONTARIO***

CITY           SKY/WX    TMP DP  RH WIND       PRES   REMARKS
GERALDTON      CLOUDY    59  59 100 SW5       29.90F FOG
THUNDER BAY    TSTM      61  59  94 VRB6      29.92R FOG
SIOUX LOOKOUT  MOCLDY    64  64 100 S6        29.86S
TORONTO        MOCLDY    64  59  82 SE3       30.15F
BIG TROUT LK   PTCLDY    54  54 100 SE2       29.83S
PICKLE LAKE    NOT AVBL
DRYDEN         PTCLDY    66  64  94 SW6       29.86S
KENORA         PTCLDY    70  66  88 W5        29.88R
$$
                *** MANITOBA***

CITY           SKY/WX    TMP DP  RH WIND       PRES   REMARKS
BRANDON        CLEAR     66  63  88 E5        29.89
DAUPHIN        CLEAR     61  55  82 SW2       29.86R
ISLAND LAKE    PTCLDY    63  59  88 SE6       29.79S
PILOT MOUND      N/A     68  64  88 E5          N/A
THE PAS        PTCLDY    66  57  72 S3        29.76R
THOMPSON       MOCLDY    63  55  77 VRB2      29.68S
WINNIPEG       CLEAR     68  63  83 NW5       29.86R
LYNN LAKE      PTCLDY    64  45  48 MISG      29.66R
CHURCHILL      MOCLDY    57  52  82 SE14      29.60F
$$
                ***SASKATCHEWAN***

CITY           SKY/WX    TMP DP  RH WIND       PRES   REMARKS
ESTEVAN        CLOUDY    66  63  88 S5        29.88R SMOKE
KINDERSLEY     CLOUDY    70  50  49 SE8       29.78  SMOKE
LLOYDMINSTER   CLOUDY    64  55  72 S9        29.71S
PRINCE ALBERT  MOCLDY    66  57  72 S5        29.76S
REGINA         MOCLDY    66  55  68 SE3       29.85S SMOKE
YORKTON        CLEAR     66  59  77 S6        29.86S
N. BATTLEFORD  CLEAR     64  57  77 SE6       29.76S
LA RONGE       PTCLDY    72  54  53 S6        29.70
SASKATOON      PTCLDY    68  61  77 S9        29.79S
SWIFT CURRENT  MOCLDY    70  45  40 S12       29.85R HAZE
$$
NOTE: THESE ARE AUTOMATED STATIONS WITH LIMITED QUALITY CONTROL
      "FAIR" INDICATES FEW OR NO CLOUDS BELOW 12,000 FEET WITH NO
      SIGNIFICANT WEATHER AND/OR OBSTRUCTIONS TO VISIBILITY.
      SKY/WX - SKY CONDITION AND SIGNIFICANT WEATHER.
      TMP - AIR TEMPERATURE.    DP   - DEWPOINT TEMPERATURE.
      RH  - RELATIVE HUMIDITY.  PRES - PRESSURE.
      HX  - HEAT INDEX.         WCI  - WIND CHILL INDEX.
$


USA.gov is the U.S. government's official web portal to all federal, state and local government web resources and services.